Stations météo

réclame
Mon MeteoGroup
F16-A, Pays-Bas (6206): Température de l'air & dewpoint: 11.01.2018 08:00:00 - 17.01.2018 08:00:00 (CET)F16-A, Pays-Bas (6206): Vitesse du vent & gusts: 11.01.2018 08:00:00 - 17.01.2018 08:00:00 (CET)F16-A, Pays-Bas (6206): Direction du vent: 11.01.2018 08:00:00 - 17.01.2018 08:00:00 (CET)F16-A, Pays-Bas (6206): reduced air pressure: 11.01.2018 08:00:00 - 17.01.2018 08:00:00 (CET)F16-A, Pays-Bas (6206): visibility: 11.01.2018 08:00:00 - 17.01.2018 08:00:00 (CET)
Date & Time tt [°C] td [°C] ff [km/h] ff [knt] fx [km/h] fx [knt] dd ppp [hPa] vv [km]
17.01.2018 08:00:00 - - - - - - - - -
17.01.2018 07:00:00 4,8 -1,3 46 25 - - W 988,6 10
17.01.2018 06:00:00 3,9 0,5 55 30 65 35 WNW 988,2 10
17.01.2018 05:00:00 4,8 -0,4 46 25 47 25 W 987,1 10
17.01.2018 04:00:00 5,0 -1,2 41 22 - - W 986,5 10
17.01.2018 03:00:00 5,0 -1,2 46 25 47 25 W 986,2 10
17.01.2018 02:00:00 5,0 -1,2 44 24 47 25 W 985,5 10
17.01.2018 01:00:00 4,6 -0,1 42 23 - - W 985,4 10
17.01.2018 00:00:00 4,9 0,8 42 23 50 27 W 985,5 10
16.01.2018 23:00:00 5,0 0,4 41 22 43 23 W 985,4 10
16.01.2018 22:00:00 5,1 0,1 48 26 - - WSW 985,6 10
16.01.2018 21:00:00 5,3 0,7 48 26 50 27 W 986,1 10
16.01.2018 20:00:00 5,2 0,6 42 23 50 27 W 986,0 10
16.01.2018 19:00:00 5,5 1,2 48 26 - - WSW 986,3 10
16.01.2018 18:00:00 5,6 0,8 48 26 50 27 WSW 986,3 10
16.01.2018 17:00:00 5,7 -0,6 46 25 50 27 W 986,7 10
16.01.2018 16:00:00 5,2 1,0 48 26 50 27 WSW 986,5 10
16.01.2018 15:00:00 5,8 0,2 50 27 50 27 W 986,2 10
16.01.2018 14:00:00 5,8 0,1 40 21 47 25 W 986,2 15
16.01.2018 13:00:00 5,6 0,3 42 23 47 25 W 986,4 10
16.01.2018 12:00:00 5,4 0,9 46 25 47 25 W 986,4 6
16.01.2018 11:00:00 5,7 0,7 46 25 50 27 W 985,6 10
16.01.2018 10:00:00 5,6 1,0 44 24 58 31 W 985,1 10
16.01.2018 09:00:00 5,7 0,4 28 15 58 31 W 984,2 10
16.01.2018 08:00:00 4,4 1,3 54 29 58 31 W 983,9 10
16.01.2018 07:00:00 6,0 1,3 46 25 50 27 W 983,6 10
16.01.2018 06:00:00 6,3 1,9 42 23 47 25 W 983,4 10
16.01.2018 05:00:00 6,2 2,9 41 22 54 29 WSW 983,3 10
16.01.2018 04:00:00 6,2 2,7 44 24 50 27 WSW 984,0 10
16.01.2018 03:00:00 6,5 2,9 44 24 54 29 WSW 984,2 10
16.01.2018 02:00:00 6,6 3,0 48 26 50 27 WSW 984,7 10
16.01.2018 01:00:00 6,8 3,5 48 26 50 27 W 985,1 10
16.01.2018 00:00:00 7,0 2,8 44 24 47 25 W 984,6 10
15.01.2018 23:00:00 7,0 3,4 37 20 47 25 W 984,4 10
15.01.2018 22:00:00 7,1 4,2 41 22 40 21 W 984,5 10
15.01.2018 21:00:00 6,8 5,1 44 24 50 27 WNW 984,3 10
15.01.2018 20:00:00 7,0 5,9 37 20 54 29 W 983,8 6
15.01.2018 19:00:00 7,3 6,7 39 21 47 25 WSW 983,7 4,0
15.01.2018 18:00:00 7,3 6,9 44 24 54 29 SSW 984,6 7
15.01.2018 17:00:00 7,5 6,8 54 29 61 33 SSW 985,6 9
15.01.2018 16:00:00 7,3 7,3 63 34 72 39 SSW 986,9 9
15.01.2018 15:00:00 6,9 6,8 72 39 83 45 SSW 988,1 -
15.01.2018 14:00:00 6,3 6,2 83 45 86 47 S 989,6 8
15.01.2018 13:00:00 6,1 5,8 85 46 90 49 S 991,5 8
15.01.2018 12:00:00 6,0 5,8 83 45 83 45 S 994,0 7
15.01.2018 11:00:00 6,0 5,7 81 44 86 47 S 995,9 7
15.01.2018 10:00:00 6,9 5,1 78 42 83 45 S 997,6 10
15.01.2018 09:00:00 6,8 5,3 67 36 68 37 S 999,5 7
15.01.2018 08:00:00 6,8 4,3 68 37 72 39 SSW 1001,3 8
15.01.2018 07:00:00 6,2 3,1 70 38 72 39 SSW 1002,8 10
15.01.2018 06:00:00 5,9 2,7 61 33 65 35 SSW 1004,3 10
15.01.2018 05:00:00 6,0 2,8 57 31 61 33 SSW 1005,9 10
15.01.2018 04:00:00 5,7 2,5 54 29 58 31 SSW 1007,5 10
15.01.2018 03:00:00 6,0 3,0 54 29 58 31 S 1008,7 9
15.01.2018 02:00:00 5,9 2,9 54 29 61 33 S 1010,0 10
15.01.2018 01:00:00 5,8 2,4 57 31 61 33 SSW 1011,7 10
15.01.2018 00:00:00 5,9 2,8 50 27 58 31 S 1012,7 9
14.01.2018 23:00:00 5,3 2,0 48 26 50 27 S 1014,0 9
14.01.2018 22:00:00 4,6 1,5 48 26 50 27 S 1014,9 9
14.01.2018 21:00:00 4,5 0,9 46 25 50 27 S 1016,1 10
14.01.2018 20:00:00 4,2 1,3 42 23 43 23 SSE 1017,1 9
14.01.2018 19:00:00 3,6 0,2 39 21 43 23 SSE 1017,4 10
14.01.2018 18:00:00 3,7 0,6 39 21 40 21 SSE 1018,1 9
14.01.2018 17:00:00 3,5 0,7 35 19 36 19 SSE 1018,4 10
14.01.2018 16:00:00 3,4 0,2 28 15 32 18 SSE 1019,4 10
14.01.2018 15:00:00 3,2 -0,7 22 12 32 18 SSE 1020,1 10
14.01.2018 14:00:00 3,0 -0,5 28 15 32 18 SSE 1020,9 10
14.01.2018 13:00:00 3,1 -0,8 28 15 36 19 SSE 1021,4 10
14.01.2018 12:00:00 2,8 -1,4 34 18 36 19 SE 1022,1 10
14.01.2018 11:00:00 3,0 -1,2 35 19 43 23 SE 1022,3 10
14.01.2018 10:00:00 3,4 -1,0 35 19 36 19 SE 1022,4 10
14.01.2018 09:00:00 3,6 -1,7 31 17 36 19 SE 1022,5 10
14.01.2018 08:00:00 3,9 -1,0 31 17 32 18 SE 1022,6 10
14.01.2018 07:00:00 4,1 -0,4 28 15 29 16 SE 1023,1 10
14.01.2018 06:00:00 4,3 -0,7 31 17 32 18 SE 1023,1 10
14.01.2018 05:00:00 4,5 -1,0 26 14 32 18 ESE 1023,3 10
14.01.2018 04:00:00 4,7 0,1 29 16 32 18 SE 1023,4 10
14.01.2018 03:00:00 4,8 0,5 15 8 32 18 - 1023,8 10
14.01.2018 02:00:00 4,6 0,8 31 17 36 19 SE 1023,9 10
14.01.2018 01:00:00 4,9 0,8 31 17 36 19 SE 1024,1 10
14.01.2018 00:00:00 5,4 2,6 37 20 40 21 SE 1024,1 9
13.01.2018 23:00:00 5,4 3,2 37 20 36 19 SE 1024,2 7
13.01.2018 22:00:00 5,8 3,7 35 19 36 19 SE 1024,1 7
13.01.2018 21:00:00 5,9 4,1 31 17 36 19 - 1024,1 6
13.01.2018 20:00:00 5,5 4,2 31 17 32 18 SE 1024,0 5
13.01.2018 19:00:00 5,2 4,1 28 15 29 16 SE 1024,3 4,5
13.01.2018 18:00:00 4,7 4,0 16 9 29 16 SE 1024,4 2,6
13.01.2018 17:00:00 4,4 3,5 21 11 29 16 SE 1024,6 4,0
13.01.2018 16:00:00 4,1 3,2 26 14 32 18 SE 1024,4 5
13.01.2018 15:00:00 4,2 3,2 28 15 32 18 SE 1024,5 6
13.01.2018 14:00:00 4,3 3,0 21 11 32 18 - 1025,0 8
13.01.2018 13:00:00 4,6 3,0 24 13 32 18 - 1025,5 9
13.01.2018 12:00:00 4,9 2,9 24 13 29 16 SSE 1025,8 10
13.01.2018 11:00:00 4,7 2,6 24 13 29 16 SE 1025,7 10
13.01.2018 10:00:00 5,1 2,6 26 14 29 16 SE 1025,4 10
13.01.2018 09:00:00 5,1 3,0 28 15 29 16 SE 1025,3 10
13.01.2018 08:00:00 5,0 2,8 26 14 25 14 SE 1025,2 10
13.01.2018 07:00:00 4,9 2,6 28 15 32 18 SE 1025,3 10
13.01.2018 06:00:00 5,0 2,6 26 14 25 14 SE 1025,5 9
13.01.2018 05:00:00 5,0 2,3 28 15 32 18 SE 1025,7 10
13.01.2018 04:00:00 5,2 2,5 31 17 32 18 SE 1026,0 10
13.01.2018 03:00:00 5,3 2,9 29 16 32 18 SE 1026,4 10
13.01.2018 02:00:00 5,3 3,2 31 17 32 18 SE 1026,5 9
13.01.2018 01:00:00 5,4 3,2 26 14 29 16 SSE 1026,6 10
13.01.2018 00:00:00 5,3 2,8 22 12 25 14 SE 1026,7 10
12.01.2018 23:00:00 5,2 2,9 24 13 29 16 SE 1027,1 10
12.01.2018 22:00:00 5,3 2,7 24 13 25 14 SE 1027,0 10
12.01.2018 21:00:00 5,3 2,7 21 11 22 12 ESE 1027,0 10
12.01.2018 20:00:00 5,2 2,6 22 12 22 12 ESE 1027,1 10
12.01.2018 19:00:00 5,3 2,8 18 10 22 12 ESE 1027,2 10
12.01.2018 18:00:00 5,5 2,8 18 10 25 14 E 1027,2 10
12.01.2018 17:00:00 5,5 2,9 21 11 25 14 - 1027,1 10
12.01.2018 16:00:00 5,5 3,5 16 9 22 12 ESE 1027,2 10
12.01.2018 15:00:00 5,4 3,9 21 11 25 14 ESE 1027,1 3,2
12.01.2018 14:00:00 5,1 4,1 18 10 25 14 E 1027,2 10
12.01.2018 13:00:00 5,4 4,4 24 13 25 14 E 1027,4 5
12.01.2018 12:00:00 5,3 4,6 16 9 22 12 E 1027,8 3,1
12.01.2018 11:00:00 5,9 4,7 18 10 25 14 ENE 1027,9 10
12.01.2018 10:00:00 6,4 4,8 16 9 18 10 NE 1027,7 10
12.01.2018 09:00:00 6,6 4,5 13 7 14 8 NE 1027,4 10
12.01.2018 08:00:00 6,4 4,4 15 8 22 12 ENE 1027,2 10
12.01.2018 07:00:00 6,3 4,5 24 13 29 16 ENE 1026,8 10
12.01.2018 06:00:00 6,7 5,2 21 11 25 14 NE 1026,3 10
12.01.2018 05:00:00 6,7 5,2 21 11 22 12 NE 1026,6 6
12.01.2018 04:00:00 6,7 5,4 21 11 22 12 NE 1026,5 10
12.01.2018 03:00:00 6,7 5,6 22 12 22 12 NE 1026,5 9
12.01.2018 02:00:00 6,8 5,8 21 11 22 12 ENE 1026,0 5
12.01.2018 01:00:00 6,9 5,9 16 9 18 10 NE 1025,9 5
12.01.2018 00:00:00 7,1 6,2 15 8 14 8 NE 1025,7 4,6
11.01.2018 23:00:00 7,1 6,4 16 9 14 8 NE 1025,2 5
11.01.2018 22:00:00 7,1 6,5 11 6 14 8 NE 1024,7 3,8
11.01.2018 21:00:00 7,0 6,5 13 7 14 8 NNE 1024,3 4,4
11.01.2018 20:00:00 7,1 6,3 15 8 22 12 NE 1023,4 4,3
11.01.2018 19:00:00 7,1 6,4 16 9 18 10 NNE 1023,0 3,9
11.01.2018 18:00:00 6,8 6,2 15 8 14 8 NNE 1022,2 3,0
11.01.2018 17:00:00 6,6 5,7 9 5 14 8 N 1021,5 3,6
11.01.2018 16:00:00 6,4 5,8 11 6 14 8 NNW 1021,0 9
11.01.2018 15:00:00 5,8 5,4 5 3 18 10 NE 1020,5 0,6
11.01.2018 14:00:00 6,0 5,4 4 2 11 6 - 1019,8 2,5
11.01.2018 13:00:00 6,4 5,4 7 4 14 8 E 1019,1 9
11.01.2018 12:00:00 6,2 5,7 8 4 11 6 ENE 1018,8 4,5
11.01.2018 11:00:00 6,1 5,6 8 4 14 8 SE 1018,2 4,4
11.01.2018 10:00:00 6,1 5,2 9 5 11 6 ESE 1017,1 8
11.01.2018 09:00:00 6,8 5,8 7 4 14 8 SE 1016,1 8
11.01.2018 08:00:00 7,0 6,2 15 8 14 8 SSE 1015,0 7

tt = Température de l'air
td = dewpoint
ff = Vitesse du vent
fx = gusts
dd = Direction du vent
ppp = reduced air pressure
vv = visibility

stations d'obs. à proximité